sat.trackr.live / text

‹ back to catalog

COSMOS 2538

NORAD 44424 · 2019-039D

PAYLOAD ACTIVE UNKNOWN

§ Identity

Operator
Country
CIS
Launch date
2019-07-10
Launch site
PLMSC
Launch vehicle
Mass (kg)
RCS (m²)

External: N2YO · Heavens-Above · Gunter

§ Orbital elements

Epoch: 2026-05-25T04:56:59.039232Z

Period
94.71 min
Inclination
97.5879°
Eccentricity
0.0043786
Mean motion
15.20418795 rev/d
Perigee alt
474.4 km
Apogee alt
534.7 km
Semi-major
6,882.7 km
B*
2.6290e-4
RAAN
224.4476°
Arg perigee
123.8694°
Mean anomaly
236.6719°
Rev number
37,641

§ Raw data

COSMOS 25381 44424U 19039D   26145.20623888  .00005807  00000+0  26290-3 0  99962 44424  97.5879 224.4476 0043786 123.8694 236.6719 15.20418795376412

JSON: /api/v1/satellites/44424 · /tle

For live sub-satellite position, see the globe view (requires WebGL).

§ Visibility from observer

Set your observer location to see the next 7 days of passes ≥ 10°. The values pass through the URL so the page stays shareable.

No JS? Fill the form by hand. The geolocation button needs JavaScript.